Weather in Bolshiye Yalchiki

Russia / Chuvash Republic     55°10′19″N   48°03′28″E
temp.,
°C
wind,
m/s
gust,
m/s
humid.,
%
clouds,
%
prec.,
mm/h
press.,
hPa
HPBL,
m
17 may, mon
mon1700:00+18w22715 0.0 101511
03:00+17n00815 0.0 101611
06:00+20ssw017053 0.0 101670
09:00+25se22517 0.0 1016544
12:00+29s24375 0.0 10161271
15:00+30sw45345 0.0 10162013
18:00+26wnw36545 0.0 1016146
21:00+19w35647 0.5 101788
18 may, tue
tue1800:00+19nne356264 0.0 101758
03:00+17e348662 0.0 101759
06:00+20e35775 0.0 1018153
09:00+24e45605 0.0 1018544
12:00+27e44485 0.0 10181044
15:00+28e44425 0.0 10171726
18:00+25e58605 0.0 1017310
21:00+20e411735 0.0 1018229
19 may, wed
wed1900:00+18e413725 0.0 1018295
03:00+16e411695 0.0 1018228
06:00+17ese512695 0.0 1018335
09:00+21ese79555 0.0 1019665
12:00+24ese78455 0.0 10181140
15:00+25ese78390 0.0 10181305
18:00+23e511540 0.0 1017416
21:00+18e412710 0.0 1017230
20 may, thu
thu2000:00+16ese514710 0.0 1017309
03:00+15se512690 0.0 1018302
06:00+16ese6136847 0.0 1017466
09:00+20se710544 0.0 1017844
12:00+23se89475 0.0 10171503
15:00+24sse710380 0.0 10171820
18:00+22se510500 0.0 1016439
21:00+16se4126180 0.0 1017251
21 may, fri
fri2100:00+15se4116215 0.0 1017210
03:00+14se4964100 0.0 1017164
06:00+16se3966100 0.0 1017270
09:00+20sse684814 0.0 1016697
12:00+23sse783925 0.0 10161847
15:00+23sse794026 0.0 10152100
18:00+19sse41055100 0.1 1015266
21:00+17ssw377784 0.9 1016172